contact:dominique.lefevre@mio.osupytheas.fr, maurice.libes@osupytheas.fr, didier.mallarino@osupytheas.fr
Project:EMSO http://www.emso-fr.org/EMSO-France
Depth: 2436.0 m
Title:EMSO Ligure Ouest : Data MII capteur MICROCAT
DateTime_Computer,Latitude,Longitude,Temperature,Conductivity,Pressure,DateTime_Instrument
DateTime_Computer,Latitude,Longitude,degC,S m-1,dbar,DateTime_Instrument
2019-08-14T00:00:05Z,42.805,6.029,13.2993,4.60019,2469.821,2019-8-14T02:00:26Z
2019-08-14T00:03:08Z,42.805,6.029,13.2987,4.60015,2469.83,2019-8-14T02:03:29Z
2019-08-14T00:06:12Z,42.805,6.029,13.2994,4.59975,2469.821,2019-8-14T02:06:32Z
2019-08-14T00:09:15Z,42.805,6.029,13.2985,4.59975,2469.821,2019-8-14T02:09:35Z
2019-08-14T00:12:18Z,42.805,6.029,13.2986,4.59976,2469.844,2019-8-14T02:12:38Z
2019-08-14T00:15:21Z,42.805,6.029,13.2987,4.59986,2469.844,2019-8-14T02:15:42Z
2019-08-14T00:18:24Z,42.805,6.029,13.2980,4.60049,2469.797,2019-8-14T02:18:45Z
2019-08-14T00:21:27Z,42.805,6.029,13.2978,4.60060,2469.844,2019-8-14T02:21:48Z
2019-08-14T00:24:31Z,42.805,6.029,13.2979,4.59985,2469.821,2019-8-14T02:24:51Z
2019-08-14T00:27:34Z,42.805,6.029,13.2970,4.60027,2469.821,2019-8-14T02:27:55Z
2019-08-14T00:30:37Z,42.805,6.029,13.2979,4.60029,2469.83,2019-8-14T02:30:58Z
2019-08-14T00:33:40Z,42.805,6.029,13.2976,4.60003,2469.821,2019-8-14T02:34:01Z
2019-08-14T00:36:43Z,42.805,6.029,13.2977,4.60010,2469.806,2019-8-14T02:37:04Z
2019-08-14T00:39:47Z,42.805,6.029,13.2971,4.60021,2469.844,2019-8-14T02:40:07Z
2019-08-14T00:42:50Z,42.805,6.029,13.2973,4.60027,2469.783,2019-8-14T02:43:10Z
2019-08-14T00:45:53Z,42.805,6.029,13.2981,4.60009,2469.83,2019-8-14T02:46:14Z
2019-08-14T00:48:56Z,42.805,6.029,13.2976,4.59998,2469.844,2019-8-14T02:49:17Z
2019-08-14T00:52:00Z,42.805,6.029,13.2983,4.59996,2469.821,2019-8-14T02:52:20Z
2019-08-14T00:55:03Z,42.805,6.029,13.2986,4.60009,2469.821,2019-8-14T02:55:23Z
2019-08-14T00:58:06Z,42.805,6.029,13.2986,4.59989,2469.844,2019-8-14T02:58:26Z
2019-08-14T01:01:09Z,42.805,6.029,13.2991,4.60019,2469.83,2019-8-14T03:01:30Z
2019-08-14T01:04:12Z,42.805,6.029,13.2983,4.59998,2469.783,2019-8-14T03:04:33Z
2019-08-14T01:07:15Z,42.805,6.029,13.2983,4.60012,2469.821,2019-8-14T03:07:36Z
2019-08-14T01:10:19Z,42.805,6.029,13.2978,4.60023,2469.821,2019-8-14T03:10:39Z
2019-08-14T01:13:22Z,42.805,6.029,13.2976,4.60009,2469.806,2019-8-14T03:13:43Z
2019-08-14T01:16:25Z,42.805,6.029,13.2983,4.60010,2469.806,2019-8-14T03:16:46Z
2019-08-14T01:19:28Z,42.805,6.029,13.2979,4.60013,2469.821,2019-8-14T03:19:49Z
2019-08-14T01:22:31Z,42.805,6.029,13.2981,4.60025,2469.783,2019-8-14T03:22:52Z
2019-08-14T01:25:35Z,42.805,6.029,13.2966,4.60019,2469.797,2019-8-14T03:25:56Z
2019-08-14T01:28:38Z,42.805,6.029,13.2967,4.59992,2469.797,2019-8-14T03:28:59Z
2019-08-14T01:31:41Z,42.805,6.029,13.2978,4.59994,2469.821,2019-8-14T03:32:02Z
2019-08-14T01:34:45Z,42.805,6.029,13.2977,4.59985,2469.821,2019-8-14T03:35:05Z
2019-08-14T01:37:48Z,42.805,6.029,13.2967,4.59991,2469.83,2019-8-14T03:38:08Z
2019-08-14T01:40:51Z,42.805,6.029,13.2971,4.59986,2469.806,2019-8-14T03:41:12Z
2019-08-14T01:43:54Z,42.805,6.029,13.2982,4.60001,2469.783,2019-8-14T03:44:15Z
2019-08-14T01:46:57Z,42.805,6.029,13.2979,4.60009,2469.806,2019-8-14T03:47:18Z
2019-08-14T01:50:01Z,42.805,6.029,13.2983,4.60023,2469.867,2019-8-14T03:50:21Z
2019-08-14T01:53:04Z,42.805,6.029,13.2974,4.59988,2469.821,2019-8-14T03:53:24Z
2019-08-14T01:56:07Z,42.805,6.029,13.2971,4.60005,2469.806,2019-8-14T03:56:28Z
2019-08-14T01:59:10Z,42.805,6.029,13.2976,4.60003,2469.806,2019-8-14T03:59:31Z
2019-08-14T02:02:13Z,42.805,6.029,13.2966,4.60005,2469.806,2019-8-14T04:02:34Z
2019-08-14T02:05:17Z,42.805,6.029,13.2973,4.60016,2469.83,2019-8-14T04:05:37Z
2019-08-14T02:08:20Z,42.805,6.029,13.2971,4.60003,2469.83,2019-8-14T04:08:40Z
2019-08-14T02:11:23Z,42.805,6.029,13.2972,4.59990,2469.797,2019-8-14T04:11:43Z
2019-08-14T02:14:26Z,42.805,6.029,13.2976,4.60013,2469.806,2019-8-14T04:14:47Z
2019-08-14T02:17:29Z,42.805,6.029,13.2966,4.60014,2469.821,2019-8-14T04:17:50Z
2019-08-14T02:20:33Z,42.805,6.029,13.2972,4.59994,2469.821,2019-8-14T04:20:53Z
2019-08-14T02:23:36Z,42.805,6.029,13.2967,4.60009,2469.821,2019-8-14T04:23:56Z
2019-08-14T02:26:39Z,42.805,6.029,13.2974,4.60014,2469.821,2019-8-14T04:27:00Z
2019-08-14T02:29:42Z,42.805,6.029,13.2974,4.60003,2469.844,2019-8-14T04:30:03Z
2019-08-14T02:32:45Z,42.805,6.029,13.2979,4.60021,2469.806,2019-8-14T04:33:06Z
2019-08-14T02:35:49Z,42.805,6.029,13.2977,4.60014,2469.821,2019-8-14T04:36:09Z
2019-08-14T02:38:52Z,42.805,6.029,13.2992,4.60019,2469.83,2019-8-14T04:39:12Z
2019-08-14T02:41:55Z,42.805,6.029,13.2974,4.60001,2469.821,2019-8-14T04:42:16Z
2019-08-14T02:44:58Z,42.805,6.029,13.2979,4.59990,2469.844,2019-8-14T04:45:19Z
2019-08-14T02:48:01Z,42.805,6.029,13.2986,4.60013,2469.821,2019-8-14T04:48:22Z
2019-08-14T02:51:05Z,42.805,6.029,13.2973,4.60001,2469.83,2019-8-14T04:51:25Z
2019-08-14T02:54:08Z,42.805,6.029,13.2972,4.60005,2469.83,2019-8-14T04:54:28Z
2019-08-14T02:57:11Z,42.805,6.029,13.2963,4.60000,2469.83,2019-8-14T04:57:32Z
2019-08-14T03:00:14Z,42.805,6.029,13.2974,4.60001,2469.83,2019-8-14T05:00:35Z
2019-08-14T03:03:17Z,42.805,6.029,13.2971,4.60003,2469.821,2019-8-14T05:03:38Z
2019-08-14T03:06:21Z,42.805,6.029,13.2983,4.60037,2469.821,2019-8-14T05:06:41Z
2019-08-14T03:09:24Z,42.805,6.029,13.2974,4.60030,2469.806,2019-8-14T05:09:44Z
2019-08-14T03:12:27Z,42.805,6.029,13.2979,4.60032,2469.844,2019-8-14T05:12:48Z
2019-08-14T03:15:30Z,42.805,6.029,13.2979,4.60024,2469.83,2019-8-14T05:15:51Z
2019-08-14T03:18:33Z,42.805,6.029,13.2978,4.60031,2469.844,2019-8-14T05:18:54Z
2019-08-14T03:21:36Z,42.805,6.029,13.2970,4.60008,2469.867,2019-8-14T05:21:57Z
2019-08-14T03:24:40Z,42.805,6.029,13.2974,4.60006,2469.806,2019-8-14T05:25:00Z
2019-08-14T03:27:43Z,42.805,6.029,13.2976,4.60029,2469.844,2019-8-14T05:28:04Z
2019-08-14T03:30:47Z,42.805,6.029,13.2985,4.60013,2469.821,2019-8-14T05:31:07Z
2019-08-14T03:33:50Z,42.805,6.029,13.2972,4.60016,2469.83,2019-8-14T05:34:10Z
2019-08-14T03:36:53Z,42.805,6.029,13.2974,4.59990,2469.876,2019-8-14T05:37:14Z
2019-08-14T03:39:56Z,42.805,6.029,13.2970,4.59999,2469.83,2019-8-14T05:40:17Z
2019-08-14T03:42:59Z,42.805,6.029,13.2971,4.60003,2469.853,2019-8-14T05:43:20Z
2019-08-14T03:46:03Z,42.805,6.029,13.2967,4.60009,2469.867,2019-8-14T05:46:23Z
2019-08-14T03:49:06Z,42.805,6.029,13.2979,4.60024,2469.867,2019-8-14T05:49:26Z
2019-08-14T03:52:09Z,42.805,6.029,13.2967,4.60003,2469.83,2019-8-14T05:52:29Z
2019-08-14T03:55:12Z,42.805,6.029,13.2973,4.59999,2469.867,2019-8-14T05:55:33Z
2019-08-14T03:58:15Z,42.805,6.029,13.2976,4.59989,2469.867,2019-8-14T05:58:36Z
2019-08-14T04:01:18Z,42.805,6.029,13.2973,4.59989,2469.844,2019-8-14T06:01:39Z
2019-08-14T04:04:22Z,42.805,6.029,13.2971,4.59998,2469.853,2019-8-14T06:04:42Z
2019-08-14T04:07:25Z,42.805,6.029,13.2972,4.60009,2469.89,2019-8-14T06:07:45Z
2019-08-14T04:10:28Z,42.805,6.029,13.2975,4.60005,2469.876,2019-8-14T06:10:49Z
2019-08-14T04:13:31Z,42.805,6.029,13.2992,4.60011,2469.914,2019-8-14T06:13:52Z
2019-08-14T04:16:34Z,42.805,6.029,13.2971,4.59998,2469.89,2019-8-14T06:16:55Z
2019-08-14T04:19:38Z,42.805,6.029,13.2976,4.60007,2469.853,2019-8-14T06:19:58Z
2019-08-14T04:22:41Z,42.805,6.029,13.2974,4.59999,2469.89,2019-8-14T06:23:01Z
2019-08-14T04:25:44Z,42.805,6.029,13.2980,4.60000,2469.89,2019-8-14T06:26:05Z
2019-08-14T04:28:47Z,42.805,6.029,13.2968,4.59999,2469.867,2019-8-14T06:29:08Z
2019-08-14T04:31:50Z,42.805,6.029,13.2976,4.59999,2469.853,2019-8-14T06:32:11Z
2019-08-14T04:34:54Z,42.805,6.029,13.2968,4.59989,2469.853,2019-8-14T06:35:14Z
2019-08-14T04:37:57Z,42.805,6.029,13.2979,4.60003,2469.89,2019-8-14T06:38:17Z
2019-08-14T04:41:00Z,42.805,6.029,13.2969,4.59982,2469.9,2019-8-14T06:41:21Z
2019-08-14T04:44:03Z,42.805,6.029,13.2966,4.59978,2469.876,2019-8-14T06:44:24Z
2019-08-14T04:47:06Z,42.805,6.029,13.2969,4.59989,2469.89,2019-8-14T06:47:27Z
2019-08-14T04:50:10Z,42.805,6.029,13.2973,4.59981,2469.89,2019-8-14T06:50:30Z
2019-08-14T04:53:13Z,42.805,6.029,13.2965,4.59981,2469.867,2019-8-14T06:53:33Z
2019-08-14T04:56:16Z,42.805,6.029,13.2973,4.59978,2469.914,2019-8-14T06:56:37Z
2019-08-14T04:59:19Z,42.805,6.029,13.2964,4.59983,2469.876,2019-8-14T06:59:40Z
2019-08-14T05:02:22Z,42.805,6.029,13.2970,4.59978,2469.89,2019-8-14T07:02:43Z
2019-08-14T05:05:26Z,42.805,6.029,13.2974,4.60001,2469.9,2019-8-14T07:05:46Z
2019-08-14T05:08:29Z,42.805,6.029,13.2968,4.59997,2469.9,2019-8-14T07:08:49Z
2019-08-14T05:11:32Z,42.805,6.029,13.2978,4.59993,2469.89,2019-8-14T07:11:53Z
2019-08-14T05:14:35Z,42.805,6.029,13.2976,4.59988,2469.853,2019-8-14T07:14:56Z
2019-08-14T05:17:38Z,42.805,6.029,13.2967,4.59988,2469.9,2019-8-14T07:17:59Z
2019-08-14T05:20:42Z,42.805,6.029,13.2971,4.60013,2469.914,2019-8-14T07:21:02Z
2019-08-14T05:23:45Z,42.805,6.029,13.2961,4.60007,2469.876,2019-8-14T07:24:05Z
2019-08-14T05:26:48Z,42.805,6.029,13.2968,4.60009,2469.9,2019-8-14T07:27:09Z
2019-08-14T05:29:51Z,42.805,6.029,13.2981,4.60011,2469.876,2019-8-14T07:30:12Z
2019-08-14T05:32:55Z,42.805,6.029,13.2963,4.59985,2469.937,2019-8-14T07:33:15Z
2019-08-14T05:35:58Z,42.805,6.029,13.2974,4.59988,2469.9,2019-8-14T07:36:18Z
2019-08-14T05:39:01Z,42.805,6.029,13.2968,4.59990,2469.876,2019-8-14T07:39:22Z
2019-08-14T05:42:04Z,42.805,6.029,13.2968,4.59992,2469.9,2019-8-14T07:42:25Z
2019-08-14T05:45:07Z,42.805,6.029,13.2972,4.59990,2469.923,2019-8-14T07:45:28Z
2019-08-14T05:48:11Z,42.805,6.029,13.2976,4.60008,2469.876,2019-8-14T07:48:31Z
2019-08-14T05:51:14Z,42.805,6.029,13.2965,4.60000,2469.89,2019-8-14T07:51:34Z
2019-08-14T05:54:17Z,42.805,6.029,13.2980,4.60021,2469.9,2019-8-14T07:54:38Z
2019-08-14T05:57:20Z,42.805,6.029,13.2974,4.60001,2469.9,2019-8-14T07:57:41Z
2019-08-14T06:00:23Z,42.805,6.029,13.2967,4.59998,2469.876,2019-8-14T08:00:44Z
2019-08-14T06:03:27Z,42.805,6.029,13.2964,4.59989,2469.937,2019-8-14T08:03:47Z
2019-08-14T06:06:30Z,42.805,6.029,13.2963,4.59988,2469.9,2019-8-14T08:06:50Z
2019-08-14T06:09:33Z,42.805,6.029,13.2967,4.59988,2469.9,2019-8-14T08:09:54Z
2019-08-14T06:12:36Z,42.805,6.029,13.2976,4.59973,2469.937,2019-8-14T08:12:57Z
2019-08-14T06:15:39Z,42.805,6.029,13.2974,4.59987,2469.9,2019-8-14T08:16:00Z
2019-08-14T06:18:43Z,42.805,6.029,13.2965,4.59979,2469.937,2019-8-14T08:19:03Z
2019-08-14T06:21:46Z,42.805,6.029,13.2967,4.59985,2469.914,2019-8-14T08:22:06Z
2019-08-14T06:24:49Z,42.805,6.029,13.2974,4.59992,2469.914,2019-8-14T08:25:10Z
2019-08-14T06:27:52Z,42.805,6.029,13.2974,4.60006,2469.914,2019-8-14T08:28:13Z
2019-08-14T06:30:55Z,42.805,6.029,13.2970,4.60013,2469.914,2019-8-14T08:31:16Z
2019-08-14T06:33:59Z,42.805,6.029,13.2976,4.60007,2469.923,2019-8-14T08:34:19Z
2019-08-14T06:37:02Z,42.805,6.029,13.2986,4.60019,2469.9,2019-8-14T08:37:22Z
2019-08-14T06:40:05Z,42.805,6.029,13.2986,4.60005,2469.914,2019-8-14T08:40:25Z
2019-08-14T06:43:08Z,42.805,6.029,13.2998,4.60007,2469.914,2019-8-14T08:43:29Z
2019-08-14T06:46:11Z,42.805,6.029,13.2988,4.59994,2469.923,2019-8-14T08:46:32Z
2019-08-14T06:49:14Z,42.805,6.029,13.2998,4.60015,2469.9,2019-8-14T08:49:35Z
2019-08-14T06:52:18Z,42.805,6.029,13.2983,4.60017,2469.937,2019-8-14T08:52:38Z
2019-08-14T06:55:21Z,42.805,6.029,13.2976,4.60003,2469.923,2019-8-14T08:55:41Z
2019-08-14T06:58:24Z,42.805,6.029,13.2967,4.59990,2469.923,2019-8-14T08:58:45Z
2019-08-14T07:01:27Z,42.805,6.029,13.2968,4.59984,2469.9,2019-8-14T09:01:48Z
2019-08-14T07:04:30Z,42.805,6.029,13.2968,4.60016,2469.914,2019-8-14T09:04:51Z
2019-08-14T07:07:34Z,42.805,6.029,13.2981,4.60016,2469.914,2019-8-14T09:07:54Z
2019-08-14T07:10:37Z,42.805,6.029,13.2993,4.60015,2469.914,2019-8-14T09:10:57Z
2019-08-14T07:13:40Z,42.805,6.029,13.3015,4.60019,2469.9,2019-8-14T09:14:01Z
2019-08-14T07:16:43Z,42.805,6.029,13.3021,4.60026,2469.89,2019-8-14T09:17:04Z
2019-08-14T07:19:47Z,42.805,6.029,13.3010,4.60018,2469.876,2019-8-14T09:20:07Z
2019-08-14T07:22:50Z,42.805,6.029,13.2978,4.60022,2469.876,2019-8-14T09:23:10Z
2019-08-14T07:25:53Z,42.805,6.029,13.2986,4.60003,2469.876,2019-8-14T09:26:14Z
2019-08-14T07:28:57Z,42.805,6.029,13.2996,4.59999,2469.914,2019-8-14T09:29:17Z
2019-08-14T07:32:00Z,42.805,6.029,13.2996,4.60025,2469.89,2019-8-14T09:32:20Z
2019-08-14T07:35:03Z,42.805,6.029,13.2987,4.60039,2469.9,2019-8-14T09:35:24Z
2019-08-14T07:38:06Z,42.805,6.029,13.2993,4.60036,2469.923,2019-8-14T09:38:27Z
2019-08-14T07:41:09Z,42.805,6.029,13.2991,4.60016,2469.89,2019-8-14T09:41:30Z
2019-08-14T07:44:13Z,42.805,6.029,13.3000,4.60043,2469.876,2019-8-14T09:44:33Z
2019-08-14T07:47:16Z,42.805,6.029,13.3008,4.60039,2469.876,2019-8-14T09:47:36Z
2019-08-14T07:50:19Z,42.805,6.029,13.3013,4.60033,2469.876,2019-8-14T09:50:40Z
2019-08-14T07:53:22Z,42.805,6.029,13.3010,4.60001,2469.89,2019-8-14T09:53:43Z
2019-08-14T07:56:25Z,42.805,6.029,13.2978,4.60016,2469.867,2019-8-14T09:56:46Z
2019-08-14T07:59:29Z,42.805,6.029,13.2995,4.60033,2469.867,2019-8-14T09:59:49Z
2019-08-14T08:02:32Z,42.805,6.029,13.2998,4.60039,2469.853,2019-8-14T10:02:52Z
2019-08-14T08:05:35Z,42.805,6.029,13.3001,4.60026,2469.853,2019-8-14T10:05:56Z
2019-08-14T08:08:38Z,42.805,6.029,13.3009,4.60023,2469.853,2019-8-14T10:08:59Z
2019-08-14T08:11:41Z,42.805,6.029,13.3004,4.60039,2469.853,2019-8-14T10:12:02Z
2019-08-14T08:14:45Z,42.805,6.029,13.2992,4.60044,2469.853,2019-8-14T10:15:05Z
2019-08-14T08:17:48Z,42.805,6.029,13.3021,4.60040,2469.83,2019-8-14T10:18:08Z
2019-08-14T08:20:51Z,42.805,6.029,13.3018,4.60042,2469.867,2019-8-14T10:21:12Z
2019-08-14T08:23:54Z,42.805,6.029,13.3005,4.60045,2469.858,2019-8-14T10:24:15Z
2019-08-14T08:26:58Z,42.805,6.029,13.2997,4.60036,2469.844,2019-8-14T10:27:18Z
2019-08-14T08:30:01Z,42.805,6.029,13.3000,4.60026,2469.844,2019-8-14T10:30:21Z
2019-08-14T08:33:04Z,42.805,6.029,13.3017,4.60028,2469.844,2019-8-14T10:33:25Z
2019-08-14T08:36:07Z,42.805,6.029,13.3020,4.60047,2469.853,2019-8-14T10:36:28Z
2019-08-14T08:39:10Z,42.805,6.029,13.3004,4.60009,2469.83,2019-8-14T10:39:31Z
2019-08-14T08:42:14Z,42.805,6.029,13.2968,4.60038,2469.876,2019-8-14T10:42:34Z
2019-08-14T08:45:17Z,42.805,6.029,13.3001,4.60003,2469.867,2019-8-14T10:45:37Z
2019-08-14T08:48:20Z,42.805,6.029,13.3001,4.60043,2469.867,2019-8-14T10:48:41Z
2019-08-14T08:51:23Z,42.805,6.029,13.3001,4.60059,2469.844,2019-8-14T10:51:44Z
2019-08-14T08:54:26Z,42.805,6.029,13.2998,4.60064,2469.83,2019-8-14T10:54:47Z
2019-08-14T08:57:30Z,42.805,6.029,13.3010,4.60060,2469.844,2019-8-14T10:57:50Z
2019-08-14T09:00:33Z,42.805,6.029,13.3000,4.60001,2469.844,2019-8-14T11:00:53Z
2019-08-14T09:03:36Z,42.805,6.029,13.2986,4.60030,2469.853,2019-8-14T11:03:57Z
2019-08-14T09:06:39Z,42.805,6.029,13.3000,4.59998,2469.867,2019-8-14T11:07:00Z
2019-08-14T09:09:42Z,42.805,6.029,13.2993,4.60038,2469.844,2019-8-14T11:10:03Z
2019-08-14T09:12:46Z,42.805,6.029,13.3019,4.60009,2469.83,2019-8-14T11:13:06Z
2019-08-14T09:15:49Z,42.805,6.029,13.3024,4.60021,2469.821,2019-8-14T11:16:09Z
2019-08-14T09:18:52Z,42.805,6.029,13.3021,4.60013,2469.83,2019-8-14T11:19:13Z
2019-08-14T09:21:55Z,42.805,6.029,13.3013,4.60026,2469.783,2019-8-14T11:22:16Z
2019-08-14T09:24:58Z,42.805,6.029,13.3020,4.60037,2469.83,2019-8-14T11:25:19Z
2019-08-14T09:28:02Z,42.805,6.029,13.3011,4.60046,2469.806,2019-8-14T11:28:22Z
2019-08-14T09:31:05Z,42.805,6.029,13.2971,4.60117,2469.821,2019-8-14T11:31:25Z
2019-08-14T09:34:08Z,42.805,6.029,13.2997,4.60060,2469.821,2019-8-14T11:34:29Z
2019-08-14T09:37:11Z,42.805,6.029,13.3028,4.60031,2469.821,2019-8-14T11:37:32Z
2019-08-14T09:40:14Z,42.805,6.029,13.3024,4.60011,2469.797,2019-8-14T11:40:35Z
2019-08-14T09:43:18Z,42.805,6.029,13.3000,4.59995,2469.844,2019-8-14T11:43:38Z
2019-08-14T09:46:21Z,42.805,6.029,13.3007,4.60035,2469.844,2019-8-14T11:46:41Z
2019-08-14T09:49:24Z,42.805,6.029,13.3018,4.60005,2469.821,2019-8-14T11:49:45Z
2019-08-14T09:52:27Z,42.805,6.029,13.3007,4.60011,2469.806,2019-8-14T11:52:48Z
2019-08-14T09:55:30Z,42.805,6.029,13.2968,4.59986,2469.797,2019-8-14T11:55:51Z
2019-08-14T09:58:34Z,42.805,6.029,13.2967,4.60001,2469.783,2019-8-14T11:58:54Z
2019-08-14T10:01:37Z,42.805,6.029,13.2971,4.60016,2469.783,2019-8-14T12:01:57Z
2019-08-14T10:04:40Z,42.805,6.029,13.2976,4.60048,2469.797,2019-8-14T12:05:01Z
2019-08-14T10:07:43Z,42.805,6.029,13.2979,4.60033,2469.806,2019-8-14T12:08:04Z
2019-08-14T10:10:46Z,42.805,6.029,13.2994,4.59984,2469.797,2019-8-14T12:11:07Z
2019-08-14T10:13:50Z,42.805,6.029,13.2995,4.59997,2469.821,2019-8-14T12:14:10Z
2019-08-14T10:16:53Z,42.805,6.029,13.2993,4.60011,2469.783,2019-8-14T12:17:14Z
2019-08-14T10:19:56Z,42.805,6.029,13.2986,4.60009,2469.797,2019-8-14T12:20:17Z
2019-08-14T10:22:59Z,42.805,6.029,13.2964,4.60041,2469.76,2019-8-14T12:23:20Z
2019-08-14T10:26:02Z,42.805,6.029,13.2969,4.60028,2469.844,2019-8-14T12:26:23Z
2019-08-14T10:29:06Z,42.805,6.029,13.2978,4.60040,2469.797,2019-8-14T12:29:26Z
2019-08-14T10:32:09Z,42.805,6.029,13.2983,4.60055,2469.76,2019-8-14T12:32:29Z
2019-08-14T10:35:12Z,42.805,6.029,13.3006,4.60006,2469.797,2019-8-14T12:35:33Z
2019-08-14T10:38:15Z,42.805,6.029,13.3007,4.60017,2469.783,2019-8-14T12:38:36Z
2019-08-14T10:41:19Z,42.805,6.029,13.3026,4.60064,2469.797,2019-8-14T12:41:39Z
2019-08-14T10:44:22Z,42.805,6.029,13.3068,4.59985,2469.797,2019-8-14T12:44:42Z
2019-08-14T10:47:25Z,42.805,6.029,13.3012,4.60024,2469.76,2019-8-14T12:47:46Z
2019-08-14T10:50:28Z,42.805,6.029,13.3009,4.60030,2469.797,2019-8-14T12:50:49Z
2019-08-14T10:53:31Z,42.805,6.029,13.2990,4.60040,2469.76,2019-8-14T12:53:52Z
2019-08-14T10:56:35Z,42.805,6.029,13.2991,4.60068,2469.797,2019-8-14T12:56:55Z
2019-08-14T10:59:38Z,42.805,6.029,13.2984,4.60072,2469.783,2019-8-14T12:59:58Z
2019-08-14T11:02:41Z,42.805,6.029,13.3003,4.60031,2469.76,2019-8-14T13:03:02Z
2019-08-14T11:05:44Z,42.805,6.029,13.3017,4.60010,2469.797,2019-8-14T13:06:05Z
2019-08-14T11:08:47Z,42.805,6.029,13.3024,4.60001,2469.773,2019-8-14T13:09:08Z
2019-08-14T11:11:50Z,42.805,6.029,13.3037,4.59996,2469.797,2019-8-14T13:12:11Z
2019-08-14T11:14:54Z,42.805,6.029,13.3036,4.59991,2469.75,2019-8-14T13:15:14Z
2019-08-14T11:17:57Z,42.805,6.029,13.3048,4.59974,2469.76,2019-8-14T13:18:18Z
2019-08-14T11:21:00Z,42.805,6.029,13.3034,4.60005,2469.76,2019-8-14T13:21:21Z
2019-08-14T11:24:03Z,42.805,6.029,13.3024,4.59976,2469.773,2019-8-14T13:24:24Z
2019-08-14T11:27:07Z,42.805,6.029,13.2979,4.59976,2469.773,2019-8-14T13:27:27Z
2019-08-14T11:30:10Z,42.805,6.029,13.2970,4.59963,2469.76,2019-8-14T13:30:31Z
2019-08-14T11:33:13Z,42.805,6.029,13.2959,4.59996,2469.76,2019-8-14T13:33:34Z
2019-08-14T11:36:16Z,42.805,6.029,13.2957,4.59983,2469.773,2019-8-14T13:36:37Z
2019-08-14T11:39:20Z,42.805,6.029,13.2962,4.59980,2469.773,2019-8-14T13:39:40Z
2019-08-14T11:42:23Z,42.805,6.029,13.2958,4.59964,2469.783,2019-8-14T13:42:43Z
2019-08-14T11:45:26Z,42.805,6.029,13.2956,4.59961,2469.797,2019-8-14T13:45:47Z
2019-08-14T11:48:29Z,42.805,6.029,13.2958,4.59961,2469.783,2019-8-14T13:48:50Z
2019-08-14T11:51:32Z,42.805,6.029,13.2956,4.59959,2469.783,2019-8-14T13:51:53Z
2019-08-14T11:54:36Z,42.805,6.029,13.2962,4.59961,2469.769,2019-8-14T13:54:56Z
2019-08-14T11:57:39Z,42.805,6.029,13.2958,4.59965,2469.773,2019-8-14T13:57:59Z
2019-08-14T12:00:42Z,42.805,6.029,13.2963,4.59964,2469.773,2019-8-14T14:01:03Z
2019-08-14T12:03:45Z,42.805,6.029,13.2958,4.59960,2469.76,2019-8-14T14:04:06Z
2019-08-14T12:06:48Z,42.805,6.029,13.2959,4.59964,2469.75,2019-8-14T14:07:09Z
2019-08-14T12:09:52Z,42.805,6.029,13.2952,4.59973,2469.773,2019-8-14T14:10:12Z
2019-08-14T12:12:55Z,42.805,6.029,13.2958,4.59971,2469.76,2019-8-14T14:13:16Z
2019-08-14T12:15:58Z,42.805,6.029,13.2962,4.59958,2469.76,2019-8-14T14:16:19Z
2019-08-14T12:19:01Z,42.805,6.029,13.2961,4.59960,2469.75,2019-8-14T14:19:22Z
2019-08-14T12:22:04Z,42.805,6.029,13.2959,4.59959,2469.737,2019-8-14T14:22:25Z
2019-08-14T12:25:08Z,42.805,6.029,13.2957,4.59965,2469.737,2019-8-14T14:25:28Z
2019-08-14T12:28:11Z,42.805,6.029,13.2957,4.59961,2469.75,2019-8-14T14:28:32Z
2019-08-14T12:31:14Z,42.805,6.029,13.2959,4.59964,2469.737,2019-8-14T14:31:35Z
2019-08-14T12:34:17Z,42.805,6.029,13.2953,4.59959,2469.76,2019-8-14T14:34:38Z
2019-08-14T12:37:21Z,42.805,6.029,13.2954,4.59956,2469.737,2019-8-14T14:37:41Z
2019-08-14T12:40:24Z,42.805,6.029,13.2953,4.59957,2469.76,2019-8-14T14:40:44Z
2019-08-14T12:43:27Z,42.805,6.029,13.2958,4.59958,2469.75,2019-8-14T14:43:48Z
2019-08-14T12:46:31Z,42.805,6.029,13.2964,4.59956,2469.737,2019-8-14T14:46:51Z
2019-08-14T12:49:34Z,42.805,6.029,13.2958,4.59956,2469.737,2019-8-14T14:49:54Z
2019-08-14T12:52:37Z,42.805,6.029,13.2958,4.59958,2469.75,2019-8-14T14:52:58Z
2019-08-14T12:55:40Z,42.805,6.029,13.2961,4.59958,2469.75,2019-8-14T14:56:01Z
2019-08-14T12:58:43Z,42.805,6.029,13.2961,4.59958,2469.76,2019-8-14T14:59:04Z
2019-08-14T13:01:47Z,42.805,6.029,13.2961,4.59968,2469.76,2019-8-14T15:02:07Z
2019-08-14T13:04:50Z,42.805,6.029,13.2957,4.59963,2469.727,2019-8-14T15:05:10Z
2019-08-14T13:07:53Z,42.805,6.029,13.2974,4.59977,2469.737,2019-8-14T15:08:14Z
2019-08-14T13:10:56Z,42.805,6.029,13.2964,4.59961,2469.737,2019-8-14T15:11:17Z
2019-08-14T13:13:59Z,42.805,6.029,13.2967,4.59976,2469.75,2019-8-14T15:14:20Z
2019-08-14T13:17:03Z,42.805,6.029,13.2962,4.59957,2469.76,2019-8-14T15:17:23Z
2019-08-14T13:20:06Z,42.805,6.029,13.2960,4.59960,2469.737,2019-8-14T15:20:26Z
2019-08-14T13:23:09Z,42.805,6.029,13.2961,4.59959,2469.75,2019-8-14T15:23:30Z
2019-08-14T13:26:12Z,42.805,6.029,13.2976,4.59957,2469.737,2019-8-14T15:26:33Z
2019-08-14T13:29:15Z,42.805,6.029,13.2963,4.59958,2469.737,2019-8-14T15:29:36Z
2019-08-14T13:32:19Z,42.805,6.029,13.2963,4.59964,2469.737,2019-8-14T15:32:39Z
2019-08-14T13:35:22Z,42.805,6.029,13.2964,4.59958,2469.75,2019-8-14T15:35:42Z
2019-08-14T13:38:25Z,42.805,6.029,13.2960,4.59958,2469.713,2019-8-14T15:38:46Z
2019-08-14T13:41:28Z,42.805,6.029,13.2958,4.59960,2469.773,2019-8-14T15:41:49Z
2019-08-14T13:44:31Z,42.805,6.029,13.2967,4.59961,2469.773,2019-8-14T15:44:52Z
2019-08-14T13:47:35Z,42.805,6.029,13.2961,4.59965,2469.75,2019-8-14T15:47:55Z
2019-08-14T13:50:38Z,42.805,6.029,13.2967,4.59958,2469.773,2019-8-14T15:50:59Z
2019-08-14T13:53:41Z,42.805,6.029,13.2971,4.59970,2469.75,2019-8-14T15:54:02Z
2019-08-14T13:56:44Z,42.805,6.029,13.2967,4.59967,2469.773,2019-8-14T15:57:05Z
2019-08-14T13:59:48Z,42.805,6.029,13.2964,4.59960,2469.737,2019-8-14T16:00:08Z
2019-08-14T14:02:51Z,42.805,6.029,13.2973,4.59973,2469.76,2019-8-14T16:03:11Z
2019-08-14T14:05:54Z,42.805,6.029,13.2958,4.59962,2469.783,2019-8-14T16:06:15Z
2019-08-14T14:08:57Z,42.805,6.029,13.2962,4.59957,2469.75,2019-8-14T16:09:18Z
2019-08-14T14:12:00Z,42.805,6.029,13.2967,4.59959,2469.773,2019-8-14T16:12:21Z
2019-08-14T14:15:04Z,42.805,6.029,13.2976,4.59956,2469.773,2019-8-14T16:15:24Z
2019-08-14T14:18:07Z,42.805,6.029,13.2978,4.59983,2469.76,2019-8-14T16:18:27Z
2019-08-14T14:21:10Z,42.805,6.029,13.2986,4.59986,2469.76,2019-8-14T16:21:31Z
2019-08-14T14:24:13Z,42.805,6.029,13.2975,4.59968,2469.737,2019-8-14T16:24:34Z
2019-08-14T14:27:16Z,42.805,6.029,13.2986,4.59983,2469.783,2019-8-14T16:27:37Z
2019-08-14T14:30:20Z,42.805,6.029,13.2971,4.59974,2469.737,2019-8-14T16:30:40Z
2019-08-14T14:33:23Z,42.805,6.029,13.2976,4.59966,2469.76,2019-8-14T16:33:43Z
2019-08-14T14:36:26Z,42.805,6.029,13.2974,4.59966,2469.76,2019-8-14T16:36:47Z
2019-08-14T14:39:29Z,42.805,6.029,13.2989,4.59977,2469.783,2019-8-14T16:39:50Z
2019-08-14T14:42:33Z,42.805,6.029,13.2990,4.59995,2469.797,2019-8-14T16:42:53Z
2019-08-14T14:45:36Z,42.805,6.029,13.2986,4.59998,2469.773,2019-8-14T16:45:56Z
2019-08-14T14:48:39Z,42.805,6.029,13.2977,4.60017,2469.773,2019-8-14T16:49:00Z
2019-08-14T14:51:42Z,42.805,6.029,13.2984,4.59989,2469.783,2019-8-14T16:52:03Z
2019-08-14T14:54:45Z,42.805,6.029,13.2979,4.60002,2469.821,2019-8-14T16:55:06Z
2019-08-14T14:57:49Z,42.805,6.029,13.2992,4.59963,2469.76,2019-8-14T16:58:09Z
2019-08-14T15:00:52Z,42.805,6.029,13.2990,4.59981,2469.76,2019-8-14T17:01:12Z
2019-08-14T15:03:55Z,42.805,6.029,13.2986,4.59983,2469.821,2019-8-14T17:04:16Z
2019-08-14T15:06:58Z,42.805,6.029,13.2988,4.59982,2469.806,2019-8-14T17:07:19Z
2019-08-14T15:10:01Z,42.805,6.029,13.2990,4.59998,2469.797,2019-8-14T17:10:22Z
2019-08-14T15:13:05Z,42.805,6.029,13.2990,4.59991,2469.783,2019-8-14T17:13:25Z